This demonstration page uses our WeatherBlox Daily Observations layout. Learn more.

Left ArrowRight Arrow

41.55636, -103.73856

Hourly Observations for January 5, 2021

Temp ( °F °C ) Dew Point ( °F °C ) Humidity (%) Winds ( mph kmh ) Pressure ( in mb ) Visibility ( mi km ) Precip ( " mm )
12:58 am 00:58 Mostly Clear 36 2.1 18 -8 48 48 Calm 29.87 1012 10 16.0934 0 0
1:58 am 01:58 Mostly Cloudy 35 1.8 18 -8 49 49 SSW 10 17 29.85 1011 10 16.0934 0 0
2:58 am 02:58 Partly Cloudy 35 1.4 15 -9.3 45 45 SSW 8 13 29.85 1011 10 16.0934 0 0
3:58 am 03:58 Mostly Clear 33 0.5 17 -8.4 52 52 SSW 12 19 29.83 1010 10 16.0934 0 0
4:58 am 04:58 Partly Cloudy 34 1.1 15 -9.5 45 45 WSW 6 9 29.84 1011 10 16.0934 0 0
5:58 am 05:58 Clear 33 0.7 16 -9 49 49 W 10 17 29.85 1011 10 16.0934 0 0
6:58 am 06:58 Mostly Cloudy 36 2.2 20 -6.9 51 51 WSW 12 19 29.85 1011 10 16.0934 0 0
7:58 am 07:58 Mostly Sunny 38 3.1 25 -3.8 61 61 W 10 17 29.84 1011 10 16.0934 0 0
8:58 am 08:58 Mostly Cloudy 43 6.1 27 -2.8 53 53 W 13 20 29.83 1010 10 16.0934 0 0
9:58 am 09:58 Mostly Cloudy 46 7.8 26 -3.2 46 46 W 13 20 29.82 1010 10 16.0934 0 0
10:58 am 10:58 Partly Cloudy 48 8.7 26 -3.3 43 43 WNW 9 15 29.81 1009 10 16.0934 0 0
11:58 am 11:58 Mostly Sunny 51 10.6 26 -3.5 37 37 NW 30 48 29.79 1009 10 16.0934 0 0
12:58 pm 12:58 Mostly Cloudy 49 9.5 24 -4.5 37 37 NW 35 56 29.79 1009 10 16.0934 0 0
1:58 pm 13:58 Mostly Cloudy with Drizzle 43 6.1 34 1 70 70 NW 29 46 29.88 1012 10 16.0934 0 0
2:58 pm 14:58 Mostly Cloudy with Drizzle 39 4 36 2 87 87 NW 23 37 29.94 1014 10 16.0934 0 0
3:59 pm 15:59 Mostly Cloudy 38 3.2 31 -0.3 78 78 NNW 24 39 30.01 1016 10 16.0934 0 0
4:58 pm 16:58 Mostly Cloudy 36 2 30 -1.3 79 79 NNW 25 41 30.06 1018 10 16.0934 0 0
5:58 pm 17:58 Mostly Cloudy 35 1.6 27 -2.6 74 74 NW 24 39 30.12 1020 10 16.0934 0 0
6:58 pm 18:58 Cloudy with Light Rain/Snow 34 1.1 28 -2.2 79 79 NW 20 31 30.13 1020 10 16.0934 0 0
7:58 pm 19:58 Cloudy 33 0.7 27 -2.8 78 78 NW 20 31 30.15 1021 10 16.0934 0 0
8:58 pm 20:58 Mostly Cloudy 31 -0.3 25 -3.7 78 78 NW 20 31 30.16 1021 10 16.0934 0 0
9:58 pm 21:58 Mostly Cloudy 29 -1.5 23 -5.1 77 77 NW 18 30 30.19 1022 10 16.0934 0 0
10:58 pm 22:58 Partly Cloudy 28 -2.2 21 -6 75 75 NW 20 31 30.18 1022 10 16.0934 0 0
11:58 pm 23:58 Clear 26 -3.2 20 -6.4 79 79 NW 15 24 30.19 1022 10 16.0934 0 0

Powered by AerisWeather